User: anonymous   Login
Location: Bergnershof
(48.9468°N, 10.9431°E)
Time: 14:04:46
(UTC+00:00)
Language:

FALCON 9 DEB - Orbit

View from above orbital plane
View from above orbital plane
View from above satellite
View from above satellite

Ground track
Ground track

The orbit data is extracted from the following two-line orbital elements,

1 46085U 20055BL  21132.18084981  .00009555  00000-0  10599-3 0  9994
2 46085  53.0124  16.0198 0011833 122.8739 237.3415 15.63676869 47983
Epoch (UTC): 12 May 2021 04:20:25
Eccentricity: 0.0011833
inclination: 53.0124°
perigee height: 369 km
apogee height: 385 km
right ascension of ascending node: 16.0198°
argument of perigee: 122.8739°
revolutions per day: 15.63676869
mean anomaly at epoch: 237.3415°
orbit number at epoch: 4798

The dashed part of the orbit path shows where the satellite is in the earth's shadow,  

DLR